Location: Ostrava
(49.8330°N, 18.2830°E)
Time: 14:16:07
(UTC+02:00)

Iridium 7 - Visible Passes

Search period start: 25 September 2016 00:00
Search period end: 05 October 2016 00:00
Orbit: 776 x 779 km, 86.4° (Epoch: 24 September)

Date Brightness Start Highest point End Pass type
(mag) Time Alt. Az. Time Alt. Az. Time Alt. Az.
25 Sep 6.5 04:47:14 10° SSE 04:52:13 48° E 04:57:14 10° NNE visible
26 Sep 7.5 04:14:28 10° SE 04:18:53 29° E 04:23:20 10° NNE visible
26 Sep 5.9 05:54:28 10° SSW 05:59:25 43° W 06:04:26 10° N visible
27 Sep 8.2 03:42:19 10° ESE 03:45:41 18° ENE 03:49:04 10° NE visible
27 Sep 5.5 05:20:35 10° S 05:25:47 73° W 05:31:02 10° N visible
28 Sep 8.7 03:12:01 10° ENE 03:12:36 10° ENE 03:13:11 10° ENE visible
28 Sep 5.9 04:47:07 10° S 04:52:16 67° E 04:57:28 10° N visible
29 Sep 6.9 04:14:04 10° SSE 04:18:52 39° E 04:23:42 10° NNE visible
29 Sep 6.2 05:55:02 10° SW 05:59:41 32° WNW 06:04:21 10° NNW visible
30 Sep 7.7 03:41:31 10° SE 03:45:36 24° E 03:49:41 10° NNE visible
30 Sep 5.6 05:20:52 10° SSW 05:25:58 53° W 05:31:06 10° N visible
01 Oct 8.3 03:09:44 10° ESE 03:12:26 14° ENE 03:15:09 10° NE visible
01 Oct 5.5 04:47:09 10° S 04:52:22 89° W 04:57:38 10° N visible
02 Oct 6.2 04:13:50 10° SSE 04:18:54 54° E 04:23:59 10° NNE visible
02 Oct 6.6 05:55:49 10° SW 05:59:59 24° WNW 06:04:11 10° NNW visible
03 Oct 7.1 03:41:29 13° SE 03:45:33 32° E 03:50:09 10° NNE visible
03 Oct 6.0 05:22:02 14° SW 05:26:11 39° WNW 05:31:05 10° N visible
04 Oct 7.9 03:09:00 11° ESE 03:12:19 20° ENE 03:15:59 10° NNE visible
04 Oct 5.4 04:49:32 25° SSW 04:52:30 66° W 04:57:44 10° N visible
